Weather in Volchanets

Russia / Primorsky Krai     42°54′49″N   132°46′00″E
temp.,
°C
wind,
m/s
gust,
m/s
humid.,
%
clouds,
%
prec.,
mm/h
press.,
hPa
HPBL,
m
18 april, sun
sun1801:00+6n235499 0.0 100954
04:00+5n355171 0.0 100781
07:00+4nnw3558100 0.0 1008123
10:00+9n61248100 0.0 10071315
13:00+12nnw710396 0.0 10041755
16:00+13nnw7113776 0.0 10041889
19:00+10nnw613471 0.0 10051755
22:00+8nnw38530 0.0 1006477
19 april, mon
mon1901:00+6nw25640 0.0 1006156
04:00+5nw23720 0.0 100642
07:00+5nw23670 0.0 100651
10:00+12nw38360 0.0 10051116
13:00+16wnw482792 0.0 10041682
16:00+17w48250 0.0 10031656
19:00+14wsw24350 0.0 1004209
22:00+9wsw11443 0.0 100610
20 april, tue
tue2001:00+9nnw512480 0.0 1008549
04:00+5n615422 0.0 10121153
07:00+3nnw515390 0.0 10151140
10:00+7nnw516200 0.0 10171562
13:00+11nw714150 0.0 10161940
16:00+14nw717160 0.0 10152485
19:00+12nw614190 0.0 10162120
22:00+8wnw39330 0.0 1019549
21 april, wed
wed2101:00+5nw22540 0.0 102040
04:00+5nnw23410 0.0 102132
07:00+6nnw23350 0.0 102137
10:00+15wnw25195 0.0 1021792
13:00+19w36165 0.0 10191366
16:00+18wsw35175 0.0 10181073
19:00+14sw23350 0.0 1018170
22:00+10nw11577 0.0 101910
22 april, thu
thu2201:00+9n115032 0.0 101910
04:00+10nne2243100 0.0 101925
07:00+10ene1143100 0.0 102128
10:00+14s2137100 0.0 1022496
13:00+13ssw3240100 0.0 1024795
16:00+12s4341100 0.0 1025868
19:00+6s2259100 0.0 1028443
22:00+3wsw12786 0.0 1031149